Location: Mascot Post Office (historical)
(40.2645°N, 99.5462°W)
Time: 01:35:11
(UTC+00:00)

ERBS - Pass Details

Date: 14 July 2020
Orbit: 408 x 425 km, 57.0° (Epoch: 14 August)

Event Time Altitude Azimuth Distance (km) Brightness Sun altitude
Exits shadow 10:31:54 12° 224° (SW) 1,365 4.2 -8.6°
Maximum altitude 10:34:55 88° 316° (NW) 414 2.2 -8.1°
Drops below altitude 10° 10:38:13 10° 44° (NE) 1,475 6.7 -7.6°
Sets 10:40:18 0° 44° (NE) 2,339 8.2 -7.3°
